Regional Weather Roundup
Issued by NWS

Home | Current Version | Previous Version | Text Only | Print | Product List | Glossary Off
Versions: 1 2 3 4 5 6 7 8 9 10 11 12 13 14 15 16 17 18 19 20 21 22 23 24 25 26 27 28 29 30 31 32 33 34 35 36 37 38 39 40 41 42 43 44 45 46 47 48 49 50

000
ASUS43 KDTX 290010
RWRMI
MICHIGAN HOURLY REGIONAL WEATHER ROUNDUP
NATIONAL WEATHER SERVICE DETROIT/PONTIAC MI
800 PM EDT TUE MAR 28 2017

NOTE: "FAIR" INDICATES FEW OR NO CLOUDS BELOW 12,000 FEET WITH NO
SIGNIFICANT WEATHER AND/OR OBSTRUCTION TO VISIBILITY.

MIZ047>049-052>055-059>063-066>070-074>076-081>083-290100-
SOUTHEAST LOWER MICHIGAN

CITY           SKY/WX    TMP DP  RH WIND       PRES   REMARKS
ADRIAN         CLOUDY    45  38  76 NE8       30.15R
6HR MIN TEMP:  45; 6HR MAX TEMP:  48;

ALMA           CLEAR     47  39  73 E6        30.16R
6HR MIN TEMP:  44; 6HR MAX TEMP:  51;

ANN ARBOR      CLEAR     44  36  73 NW6       30.14R
BAD AXE        CLEAR     38  31  77 N5        30.19R WCI  34
6HR MIN TEMP:  38; 6HR MAX TEMP:  43;

CARO           CLEAR     42  31  64 NE3       30.17R
DETROIT CITY   CLEAR     47  37  68 NE10      30.15R
6HR MIN TEMP:  45; 6HR MAX TEMP:  52;

DETROIT        PTCLDY    48  37  65 VRB5      30.15R
6HR MIN TEMP:  47; 6HR MAX TEMP:  50;

FLINT          CLEAR     45  34  65 N6        30.17R
6HR MIN TEMP:  42; 6HR MAX TEMP:  49;

GROSSE ILE     PTCLDY    48  37  65 NE8       30.13R
6HR MIN TEMP:  47; 6HR MAX TEMP:  50;

HILLSDALE      CLOUDY    41  36  81 NE7       30.14R
HOWELL         CLEAR     44  34  68 CALM      30.16R
6HR MIN TEMP:  42; 6HR MAX TEMP:  46;


CITY           SKY/WX    TMP DP  RH WIND       PRES   REMARKS
JACKSON        CLEAR     44  35  70 NE7       30.15R
6HR MIN TEMP:  44; 6HR MAX TEMP:  46;

LAMBERTVILLE   CLOUDY    48  40  71 NE5       30.14R
6HR MIN TEMP:  48; 6HR MAX TEMP:  50;

LANSING        CLEAR     43  33  68 E6        30.16S
6HR MIN TEMP:  43; 6HR MAX TEMP:  50;

LAPEER         FAIR      43  34  69 NE5       30.17R
6HR MIN TEMP:  43; 6HR MAX TEMP:  49;

MASON          CLEAR     44  37  75 NE5       30.16R
MONROE         CLOUDY    47  41  78 NW6       30.14R
6HR MIN TEMP:  47; 6HR MAX TEMP:  49;

MT. CLEMENS    PTCLDY    43  37  80 N10       30.13R
6HR MIN TEMP:  43; 6HR MAX TEMP:  51;

PONTIAC        PTCLDY    45  35  68 N9        30.14R
6HR MIN TEMP:  43; 6HR MAX TEMP:  50; 6HR PCP: TRACE;

PORT HOPE        N/A     35  33  92 N8        30.17R WCI  29
6HR MIN TEMP:  35; 6HR MAX TEMP:  41;

PORT HURON     CLEAR     39  30  70 N7        30.17R WCI  34
TRI CITIES     CLEAR     42  35  76 NE6       30.18R
6HR MIN TEMP:  42; 6HR MAX TEMP:  48;

MIDLAND        FAIR      41  32  70 E7        30.18R
6HR MIN TEMP:  41; 6HR MAX TEMP:  51;

TROY           CLEAR     47  35  62 NE10      30.16R
SAGINAW HB     CLEAR     41  34  75 NE5       30.17S
$$
MIZ043>046-050>051-056>058-064>065-071>073-077>080-290100-
SOUTHWEST LOWER MICHIGAN

CITY           SKY/WX    TMP DP  RH WIND       PRES   REMARKS
BATTLE CREEK   CLEAR     44  36  73 NE3       30.16R
6HR MIN TEMP:  44; 6HR MAX TEMP:  47;

BENTON HARBOR  CLOUDY    40  35  83 VRB3      30.17R
6HR MIN TEMP:  40; 6HR MAX TEMP:  43;

BIG RAPIDS     CLEAR     53  31  44 E3        30.14R
6HR MIN TEMP:  47; 6HR MAX TEMP:  56;

COLDWATER      CLOUDY    44  39  80 N8        30.15R
6HR MIN TEMP:  44; 6HR MAX TEMP:  47;

FREMONT        FAIR      51  37  60 NW7       30.14R
HOLLAND        CLEAR     41  36  82 W5        30.17R
6HR MIN TEMP:  41; 6HR MAX TEMP:  49;

GRAND RAPIDS   PTCLDY    47  39  74 SE3       30.15R
6HR MIN TEMP:  46; 6HR MAX TEMP:  52;

IONIA          FAIR      45  36  70 E6        30.15R
6HR MIN TEMP:  43; 6HR MAX TEMP:  49;

KALAMAZOO      PTCLDY    45  36  70 N7        30.17R
6HR MIN TEMP:  45; 6HR MAX TEMP:  48;

LUDINGTON      CLEAR     38  35  89 N8        30.17R WCI  32
6HR MIN TEMP:  38; 6HR MAX TEMP:  51;

MARSHALL       CLEAR     45  36  71 CALM      30.15R
6HR MIN TEMP:  44; 6HR MAX TEMP:  46;

MOUNT PLEASANT CLEAR     51  34  52 SE12      30.15R
6HR MIN TEMP:  46; 6HR MAX TEMP:  55;

MUSKEGON       PTCLDY    38  35  89 W3        30.16R
6HR MIN TEMP:  38; 6HR MAX TEMP:  52;

SOUTH HAVEN    CLOUDY    38  36  94 N5        30.17R WCI  34
$$
MIZ016>042-290100-
NORTHERN LOWER MICHIGAN

CITY           SKY/WX    TMP DP  RH WIND       PRES   REMARKS
ALPENA         CLEAR     45  31  58 NW6       30.19R
6HR MIN TEMP:  45; 6HR MAX TEMP:  51;

BEAVER ISLAND  CLEAR     32  31  95 W3        30.21R
6HR MIN TEMP:  32; 6HR MAX TEMP:  46;

BELLAIRE       CLEAR     45  32  59 CALM      30.20S
6HR MIN TEMP:  45; 6HR MAX TEMP:  51;

CADILLAC       CLEAR     48  32  53 N5        30.16R
CHARLEVOIX     CLEAR     40  35  82 CALM      30.22F
6HR MIN TEMP:  34; 6HR MAX TEMP:  40;

FRANKFORT      CLEAR     39  33  80 NE7       30.20R WCI  34
GAYLORD        CLEAR     48  24  39 N5        30.18R
6HR MIN TEMP:  47; 6HR MAX TEMP:  54;

GRAYLING       CLEAR     48  30  49 N8        30.18R
HARBOR SPRINGS FOG       31  31  99 CALM      30.20S VSB 1/4
HOUGHTON LAKE  CLEAR     50  31  48 N6        30.16R
6HR MIN TEMP:  44; 6HR MAX TEMP:  56;

MANISTEE       CLEAR     39  35  86 NW6       30.18R WCI  35
OSCODA         CLEAR     41  28  59 NE7       30.18R
6HR MIN TEMP:  41; 6HR MAX TEMP:  46;

PELLSTON       CLEAR     47  31  53 CALM      30.20R
6HR MIN TEMP:  47; 6HR MAX TEMP:  54;

ROGERS CITY    CLEAR     46  31  54 CALM      30.19S
TRAVERSE CITY  PTCLDY    38  34  85 N6        30.20R WCI  33
6HR MIN TEMP:  38; 6HR MAX TEMP:  47;

$$
MIZ007>008-015-290100-
EASTERN UPPER MICHIGAN

CITY           SKY/WX    TMP DP  RH WIND       PRES   REMARKS
KINROSS        CLEAR     40  29  64 N7        30.19R
6HR MIN TEMP:  40; 6HR MAX TEMP:  49;

MACKINAC ISLAN CLEAR     39  31  72 W8        30.19S WCI  34
6HR MIN TEMP:  39; 6HR MAX TEMP:  46;

NEWBERRY       CLEAR     42  31  65 N5        30.19R
6HR MIN TEMP:  42; 6HR MAX TEMP:  51;

S. S. MARIE    CLEAR     41  29  62 W7        30.19R
6HR MIN TEMP:  41; 6HR MAX TEMP:  49;

MUNISING         N/A     36  31  82 CALM      30.21R
6HR MIN TEMP:  36; 6HR MAX TEMP:  45;

$$
MIZ004>006-011>014-085-290100-
CENTRAL UPPER MICHIGAN

CITY           SKY/WX    TMP DP  RH WIND       PRES   REMARKS
MANISTIQUE     CLEAR     32  31  97 S3        30.20R
6HR MIN TEMP:  32; 6HR MAX TEMP:  41;

ESCANABA       CLEAR     33  30  88 CALM      30.22R
6HR MIN TEMP:  33; 6HR MAX TEMP:  42;

MENOMINEE        N/A    N/A N/A N/A MISG        N/A
SAWYER-GWINN   CLEAR     41  30  65 N7        30.21R
$$
MIZ001>003-009>011-084-290100-
WESTERN UPPER MICHIGAN

CITY           SKY/WX    TMP DP  RH WIND       PRES   REMARKS
IRON MOUNTAIN  MOCLDY    54  28  36 NE10G17   30.16R
6HR MIN TEMP:  53; 6HR MAX TEMP:  60;

HOUGHTON       CLEAR     40  30  67 E6        30.20R
6HR MIN TEMP:  40; 6HR MAX TEMP:  48;

COPPER HARBOR    N/A     36  32  85 CALM      30.23R
6HR MIN TEMP:  36; 6HR MAX TEMP:  40;

IRONWOOD       CLEAR     53  26  35 N3        30.18R
6HR MIN TEMP:  53; 6HR MAX TEMP:  58;

$$

ABBREVIATIONS USED IN REMARKS
   TC - TEMPERATURE IN CELSIUS
  WCI - WIND CHILL INDEX
   HX - HEAT INDEX
  VSB - VISIBILITY





USA.gov is the U.S. government's official web portal to all federal, state and local government web resources and services.